Time,TemperatureF,DewpointF,PressureIn,WindDirection,WindDirectionDegrees,WindSpeedMPH,WindSpeedGustMPH,Humidity,HourlyPrecipIn,Conditions,Clouds,dailyrainin,SolarRadiationWatts/m^2,SoftwareType,DateUTC
2013-06-30 00:02:00,70.0,50.0,-100.00,NW,313,7.0,9.0,49,0.00,,,0.00,0.000000,,2013-06-30 05:02:00,
2013-06-30 00:34:00,69.0,50.0,-100.00,NW,326,9.0,13.0,51,0.00,,,0.00,0.000000,,2013-06-30 05:34:00,
2013-06-30 00:43:00,69.0,50.0,-100.00,NW,326,9.0,13.0,51,0.00,,,0.00,0.000000,,2013-06-30 05:43:00,
2013-06-30 00:53:00,69.0,50.0,-100.00,NW,326,9.0,13.0,51,0.00,,,0.00,0.000000,,2013-06-30 05:53:00,
2013-06-30 01:02:00,69.0,50.0,-100.00,NW,326,9.0,13.0,51,0.00,,,0.00,0.000000,,2013-06-30 06:02:00,
2013-06-30 01:34:00,68.0,50.0,-100.00,NNW,334,10.0,15.0,53,0.00,,,0.00,0.000000,,2013-06-30 06:34:00,
2013-06-30 01:43:00,68.0,50.0,-100.00,NNW,334,10.0,15.0,53,0.00,,,0.00,0.000000,,2013-06-30 06:43:00,
2013-06-30 01:53:00,68.0,50.0,-100.00,NNW,334,10.0,15.0,53,0.00,,,0.00,0.000000,,2013-06-30 06:53:00,
2013-06-30 02:02:00,68.0,50.0,-100.00,NNW,334,10.0,15.0,53,0.00,,,0.00,0.000000,,2013-06-30 07:02:00,
2013-06-30 02:33:00,67.0,52.0,-100.00,NNW,329,9.0,16.0,58,0.00,,,0.00,0.000000,,2013-06-30 07:33:00,
2013-06-30 02:44:00,67.0,52.0,-100.00,NNW,329,9.0,16.0,58,0.00,,,0.00,0.000000,,2013-06-30 07:44:00,
2013-06-30 02:53:00,67.0,52.0,-100.00,NNW,329,9.0,16.0,58,0.00,,,0.00,0.000000,,2013-06-30 07:53:00,
2013-06-30 03:02:00,67.0,52.0,-100.00,NNW,329,9.0,16.0,58,0.00,,,0.00,0.000000,,2013-06-30 08:02:00,
2013-06-30 03:34:00,65.0,53.0,-100.00,NNW,330,8.0,15.0,64,0.00,,,0.00,0.000000,,2013-06-30 08:34:00,
2013-06-30 03:42:00,65.0,53.0,-100.00,NNW,330,8.0,15.0,64,0.00,,,0.00,0.000000,,2013-06-30 08:42:00,
2013-06-30 03:53:00,65.0,53.0,-100.00,NNW,330,8.0,15.0,64,0.00,,,0.00,0.000000,,2013-06-30 08:53:00,
2013-06-30 04:01:00,65.0,53.0,-100.00,NNW,330,8.0,15.0,64,0.00,,,0.00,0.000000,,2013-06-30 09:01:00,
2013-06-30 04:34:00,64.0,54.0,-100.00,NNW,339,12.0,19.0,70,0.00,,,0.00,0.000000,,2013-06-30 09:34:00,
2013-06-30 04:43:00,64.0,54.0,-100.00,NNW,339,12.0,19.0,70,0.00,,,0.00,0.000000,,2013-06-30 09:43:00,
2013-06-30 04:53:00,64.0,54.0,-100.00,NNW,339,12.0,19.0,70,0.00,,,0.00,0.000000,,2013-06-30 09:53:00,
2013-06-30 05:02:00,64.0,54.0,-100.00,NNW,339,12.0,19.0,70,0.00,,,0.00,0.000000,,2013-06-30 10:02:00,
2013-06-30 05:34:00,62.0,55.0,-100.00,NNW,339,13.0,22.0,78,0.00,,,0.00,0.000000,,2013-06-30 10:34:00,
2013-06-30 05:43:00,62.0,55.0,-100.00,NNW,339,13.0,22.0,78,0.00,,,0.00,0.000000,,2013-06-30 10:43:00,
2013-06-30 05:53:00,62.0,55.0,-100.00,NNW,339,13.0,22.0,78,0.00,,,0.00,0.000000,,2013-06-30 10:53:00,
2013-06-30 06:02:00,62.0,55.0,-100.00,NNW,339,13.0,22.0,78,0.00,,,0.00,0.000000,,2013-06-30 11:02:00,
2013-06-30 06:33:00,62.0,56.0,-100.00,NNW,347,12.0,20.0,82,0.00,,,0.00,1.000000,,2013-06-30 11:33:00,
2013-06-30 06:43:00,62.0,56.0,-100.00,NNW,347,12.0,20.0,82,0.00,,,0.00,1.000000,,2013-06-30 11:43:00,
2013-06-30 06:53:00,62.0,56.0,-100.00,NNW,347,12.0,20.0,82,0.00,,,0.00,1.000000,,2013-06-30 11:53:00,
2013-06-30 07:02:00,62.0,56.0,-100.00,NNW,347,12.0,20.0,82,0.00,,,0.00,1.000000,,2013-06-30 12:02:00,
2013-06-30 07:33:00,63.0,58.0,-100.00,NNW,348,12.0,28.0,83,0.00,,,0.00,60.000000,,2013-06-30 12:33:00,
2013-06-30 07:43:00,63.0,58.0,-100.00,NNW,348,12.0,28.0,83,0.00,,,0.00,60.000000,,2013-06-30 12:43:00,
2013-06-30 07:52:00,63.0,58.0,-100.00,NNW,348,12.0,28.0,83,0.00,,,0.00,60.000000,,2013-06-30 12:52:00,
2013-06-30 08:02:00,63.0,58.0,-100.00,NNW,348,12.0,28.0,83,0.00,,,0.00,60.000000,,2013-06-30 13:02:00,
2013-06-30 08:34:00,65.0,58.0,-100.00,North,351,9.0,21.0,78,0.00,,,0.00,253.000000,,2013-06-30 13:34:00,
2013-06-30 08:44:00,65.0,58.0,-100.00,North,351,9.0,21.0,78,0.00,,,0.00,253.000000,,2013-06-30 13:44:00,
2013-06-30 08:53:00,65.0,58.0,-100.00,North,351,9.0,21.0,78,0.00,,,0.00,253.000000,,2013-06-30 13:53:00,
2013-06-30 09:02:00,65.0,58.0,-100.00,North,351,9.0,21.0,78,0.00,,,0.00,253.000000,,2013-06-30 14:02:00,
2013-06-30 09:33:00,68.0,58.0,-100.00,North,358,10.0,21.0,71,0.00,,,0.00,516.000000,,2013-06-30 14:33:00,
2013-06-30 09:44:00,68.0,58.0,-100.00,North,358,10.0,21.0,71,0.00,,,0.00,516.000000,,2013-06-30 14:44:00,
2013-06-30 09:52:00,68.0,58.0,-100.00,North,358,10.0,21.0,71,0.00,,,0.00,516.000000,,2013-06-30 14:52:00,
2013-06-30 10:02:00,68.0,58.0,-100.00,North,358,10.0,21.0,71,0.00,,,0.00,516.000000,,2013-06-30 15:02:00,
2013-06-30 10:35:00,69.0,57.0,-100.00,North,6,12.0,21.0,65,0.00,,,0.00,626.000000,,2013-06-30 15:35:00,
2013-06-30 10:44:00,69.0,57.0,-100.00,North,6,12.0,21.0,65,0.00,,,0.00,626.000000,,2013-06-30 15:44:00,
2013-06-30 10:53:00,69.0,57.0,-100.00,North,6,12.0,21.0,65,0.00,,,0.00,626.000000,,2013-06-30 15:53:00,
2013-06-30 11:01:00,69.0,57.0,-100.00,North,6,12.0,21.0,65,0.00,,,0.00,626.000000,,2013-06-30 16:01:00,
2013-06-30 11:34:00,70.0,55.0,-100.00,North,354,12.0,21.0,59,0.00,,,0.00,740.000000,,2013-06-30 16:34:00,
2013-06-30 11:44:00,70.0,55.0,-100.00,North,354,12.0,21.0,59,0.00,,,0.00,740.000000,,2013-06-30 16:44:00,
2013-06-30 11:53:00,70.0,55.0,-100.00,North,354,12.0,21.0,59,0.00,,,0.00,740.000000,,2013-06-30 16:53:00,
2013-06-30 12:02:00,70.0,55.0,-100.00,North,354,12.0,21.0,59,0.00,,,0.00,740.000000,,2013-06-30 17:02:00,
2013-06-30 12:34:00,73.0,55.0,-100.00,NNE,21,11.0,22.0,54,0.00,,,0.00,1034.000000,,2013-06-30 17:34:00,
2013-06-30 12:43:00,73.0,55.0,-100.00,NNE,21,11.0,22.0,54,0.00,,,0.00,1034.000000,,2013-06-30 17:43:00,
2013-06-30 12:53:00,73.0,55.0,-100.00,NNE,21,11.0,22.0,54,0.00,,,0.00,1034.000000,,2013-06-30 17:53:00,
2013-06-30 13:02:00,73.0,55.0,-100.00,NNE,21,11.0,22.0,54,0.00,,,0.00,1034.000000,,2013-06-30 18:02:00,
2013-06-30 13:34:00,72.0,56.0,-100.00,NNE,16,12.0,21.0,58,0.00,,,0.00,924.000000,,2013-06-30 18:34:00,
2013-06-30 13:43:00,72.0,56.0,-100.00,NNE,16,12.0,21.0,58,0.00,,,0.00,924.000000,,2013-06-30 18:43:00,
2013-06-30 13:53:00,72.0,56.0,-100.00,NNE,16,12.0,21.0,58,0.00,,,0.00,924.000000,,2013-06-30 18:53:00,
2013-06-30 14:01:00,72.0,56.0,-100.00,NNE,16,12.0,21.0,58,0.00,,,0.00,924.000000,,2013-06-30 19:01:00,
2013-06-30 14:33:00,73.0,55.0,-100.00,North,351,11.0,19.0,53,0.00,,,0.00,832.000000,,2013-06-30 19:33:00,
2013-06-30 14:43:00,73.0,55.0,-100.00,North,351,11.0,19.0,53,0.00,,,0.00,832.000000,,2013-06-30 19:43:00,
2013-06-30 14:53:00,73.0,55.0,-100.00,North,351,11.0,19.0,53,0.00,,,0.00,832.000000,,2013-06-30 19:53:00,
2013-06-30 15:02:00,73.0,55.0,-100.00,North,351,11.0,19.0,53,0.00,,,0.00,832.000000,,2013-06-30 20:02:00,
2013-06-30 15:34:00,73.0,56.0,-100.00,NNW,339,12.0,19.0,56,0.00,,,0.00,798.000000,,2013-06-30 20:34:00,
2013-06-30 15:42:00,73.0,56.0,-100.00,NNW,339,12.0,19.0,56,0.00,,,0.00,798.000000,,2013-06-30 20:42:00,
2013-06-30 15:52:00,73.0,56.0,-100.00,NNW,339,12.0,19.0,56,0.00,,,0.00,798.000000,,2013-06-30 20:52:00,
2013-06-30 16:01:00,73.0,56.0,-100.00,NNW,339,12.0,19.0,56,0.00,,,0.00,798.000000,,2013-06-30 21:01:00,
2013-06-30 16:34:00,72.0,54.0,-100.00,NNW,335,13.0,20.0,54,0.00,,,0.00,686.000000,,2013-06-30 21:34:00,
2013-06-30 16:43:00,72.0,54.0,-100.00,NNW,335,13.0,20.0,54,0.00,,,0.00,686.000000,,2013-06-30 21:43:00,
2013-06-30 16:53:00,72.0,54.0,-100.00,NNW,335,13.0,20.0,54,0.00,,,0.00,686.000000,,2013-06-30 21:53:00,
2013-06-30 17:01:00,72.0,54.0,-100.00,NNW,335,13.0,20.0,54,0.00,,,0.00,686.000000,,2013-06-30 22:01:00,
2013-06-30 17:34:00,72.0,57.0,-100.00,North,352,9.0,20.0,60,0.00,,,0.00,535.000000,,2013-06-30 22:34:00,
2013-06-30 17:43:00,72.0,57.0,-100.00,North,352,9.0,20.0,60,0.00,,,0.00,535.000000,,2013-06-30 22:43:00,
2013-06-30 17:53:00,72.0,57.0,-100.00,North,352,9.0,20.0,60,0.00,,,0.00,535.000000,,2013-06-30 22:53:00,
2013-06-30 18:02:00,72.0,57.0,-100.00,North,352,9.0,20.0,60,0.00,,,0.00,535.000000,,2013-06-30 23:02:00,
2013-06-30 18:33:00,72.0,57.0,-100.00,NNW,348,7.0,18.0,59,0.00,,,0.00,397.000000,,2013-06-30 23:33:00,
2013-06-30 18:44:00,72.0,57.0,-100.00,NNW,348,7.0,18.0,59,0.00,,,0.00,397.000000,,2013-06-30 23:44:00,
2013-06-30 18:53:00,72.0,57.0,-100.00,NNW,348,7.0,18.0,59,0.00,,,0.00,397.000000,,2013-06-30 23:53:00,
2013-06-30 19:01:00,72.0,57.0,-100.00,NNW,348,7.0,18.0,59,0.00,,,0.00,397.000000,,2013-07-01 00:01:00,
2013-06-30 19:33:00,72.0,56.0,-100.00,NNW,347,9.0,18.0,57,0.00,,,0.00,418.000000,,2013-07-01 00:33:00,
2013-06-30 19:42:00,72.0,56.0,-100.00,NNW,347,9.0,18.0,57,0.00,,,0.00,418.000000,,2013-07-01 00:42:00,
2013-06-30 19:52:00,72.0,56.0,-100.00,NNW,347,9.0,18.0,57,0.00,,,0.00,418.000000,,2013-07-01 00:52:00,
2013-06-30 20:01:00,72.0,56.0,-100.00,NNW,347,9.0,18.0,57,0.00,,,0.00,418.000000,,2013-07-01 01:01:00,
2013-06-30 20:34:00,69.0,57.0,-100.00,North,3,8.0,14.0,65,0.00,,,0.00,117.000000,,2013-07-01 01:34:00,
2013-06-30 20:43:00,69.0,57.0,-100.00,North,3,8.0,14.0,65,0.00,,,0.00,117.000000,,2013-07-01 01:43:00,
2013-06-30 20:52:00,69.0,57.0,-100.00,North,3,8.0,14.0,65,0.00,,,0.00,117.000000,,2013-07-01 01:52:00,
2013-06-30 21:02:00,69.0,57.0,-100.00,North,3,8.0,14.0,65,0.00,,,0.00,117.000000,,2013-07-01 02:02:00,
2013-06-30 21:33:00,67.0,56.0,-100.00,North,355,8.0,16.0,67,0.00,,,0.00,6.000000,,2013-07-01 02:33:00,
2013-06-30 21:44:00,67.0,56.0,-100.00,North,355,8.0,16.0,67,0.00,,,0.00,6.000000,,2013-07-01 02:44:00,
2013-06-30 21:54:00,67.0,56.0,-100.00,North,355,8.0,16.0,67,0.00,,,0.00,6.000000,,2013-07-01 02:54:00,
2013-06-30 22:01:00,67.0,56.0,-100.00,North,355,8.0,16.0,67,0.00,,,0.00,6.000000,,2013-07-01 03:01:00,
2013-06-30 22:33:00,66.0,56.0,-100.00,North,356,7.0,13.0,71,0.00,,,0.00,0.000000,,2013-07-01 03:33:00,
2013-06-30 22:43:00,66.0,56.0,-100.00,North,356,7.0,13.0,71,0.00,,,0.00,0.000000,,2013-07-01 03:43:00,
2013-06-30 22:52:00,66.0,56.0,-100.00,North,356,7.0,13.0,71,0.00,,,0.00,0.000000,,2013-07-01 03:52:00,
2013-06-30 23:01:00,66.0,56.0,-100.00,North,356,7.0,13.0,71,0.00,,,0.00,0.000000,,2013-07-01 04:01:00,
2013-06-30 23:32:00,65.0,56.0,-100.00,North,357,10.0,16.0,74,0.00,,,0.00,0.000000,,2013-07-01 04:32:00,
2013-06-30 23:43:00,65.0,56.0,-100.00,North,357,10.0,16.0,74,0.00,,,0.00,0.000000,,2013-07-01 04:43:00,
2013-06-30 23:53:00,65.0,56.0,-100.00,North,357,10.0,16.0,74,0.00,,,0.00,0.000000,,2013-07-01 04:53:00,